TimeEDT,TemperatureF,Dew PointF,Humidity,Sea Level PressureIn,VisibilityMPH,Wind Direction,Wind SpeedMPH,Gust SpeedMPH,PrecipitationIn,Events,Conditions,WindDirDegrees,DateUTC
12:54 AM,62.1,55.0,78,30.09,10.0,Calm,Calm,-,N/A,,Mostly Cloudy,0,2013-04-15 04:54:00
1:54 AM,62.1,55.9,80,30.08,10.0,ESE,3.5,-,N/A,,Clear,120,2013-04-15 05:54:00
2:54 AM,62.1,57.0,84,30.06,10.0,East,5.8,-,N/A,,Scattered Clouds,100,2013-04-15 06:54:00
3:54 AM,63.0,57.0,81,30.09,5.0,Calm,Calm,-,0.00,Rain,Light Rain,0,2013-04-15 07:54:00
5:54 AM,61.0,57.0,87,30.06,6.0,SE,11.5,-,0.03,Rain,Light Rain,130,2013-04-15 09:54:00
7:54 AM,60.1,55.0,83,30.00,6.0,East,17.3,23.0,0.04,Rain,Light Rain,90,2013-04-15 11:54:00
8:54 AM,62.1,55.0,78,30.06,10.0,East,11.5,18.4,0.02,Rain,Light Rain,100,2013-04-15 12:54:00
9:54 AM,60.1,54.0,80,30.05,10.0,ESE,13.8,-,0.00,Rain,Light Rain,110,2013-04-15 13:54:00
10:54 AM,63.0,55.9,78,30.07,10.0,ESE,11.5,-,0.00,,Mostly Cloudy,120,2013-04-15 14:54:00
11:54 AM,69.1,57.9,68,30.07,10.0,ESE,15.0,23.0,N/A,,Mostly Cloudy,120,2013-04-15 15:54:00
12:54 PM,69.1,57.9,68,30.08,10.0,ESE,9.2,17.3,N/A,,Overcast,120,2013-04-15 16:54:00
1:01 PM,69.8,57.2,64,30.09,10.0,ESE,11.5,17.3,N/A,,Overcast,110,2013-04-15 17:01:00
1:16 PM,69.8,57.2,64,30.09,10.0,SE,8.1,-,N/A,,Overcast,130,2013-04-15 17:16:00
1:54 PM,71.1,57.0,61,30.09,10.0,Variable,3.5,-,N/A,,Overcast,0,2013-04-15 17:54:00
2:54 PM,68.0,57.9,70,30.10,10.0,SSE,3.5,-,N/A,,Overcast,150,2013-04-15 18:54:00
3:54 PM,68.0,59.0,73,30.10,7.0,East,6.9,-,0.00,,Overcast,100,2013-04-15 19:54:00
4:13 PM,68.0,59.0,73,30.10,10.0,East,6.9,-,N/A,,Overcast,100,2013-04-15 20:13:00
4:54 PM,69.1,59.0,70,30.11,10.0,Calm,Calm,-,N/A,,Overcast,0,2013-04-15 20:54:00
5:54 PM,66.9,59.0,76,30.12,10.0,NNE,5.8,-,N/A,,Overcast,20,2013-04-15 21:54:00
6:54 PM,66.9,59.0,76,30.12,10.0,ENE,5.8,-,N/A,,Overcast,60,2013-04-15 22:54:00
7:54 PM,64.9,57.9,78,30.14,10.0,ENE,6.9,-,N/A,,Overcast,70,2013-04-15 23:54:00
8:54 PM,64.0,57.9,80,30.16,10.0,NE,6.9,-,N/A,,Overcast,50,2013-04-16 00:54:00
9:54 PM,64.0,57.6,79,30.19,10.0,NE,3.5,-,N/A,,Overcast,50,2013-04-16 01:54:00
10:54 PM,63.0,59.0,87,30.20,10.0,East,8.1,-,N/A,,Overcast,90,2013-04-16 02:54:00
11:54 PM,63.0,59.0,87,30.21,10.0,NE,4.6,-,N/A,,Overcast,40,2013-04-16 03:54:00